Погода в Аруше

Танзания     3°22′26″S   36°40′43″E
темп.,
°C
ветер,
м/с
пор.,
м/с
влажн.,
%
обл.,
%
осадки,
мм/ч
давл.,
гПа
погр.,
м
17 апреля, сб
сб1700:00+15юв129634 0.6 101764
03:00+14юв129799 1.6 1015120
06:00+14юв239895 0.1 1016188
09:00+15юв239294 0.3 1018431
12:00+19юв227860 0.3 1016749
15:00+20юв226640 1.1 10131091
18:00+17вюв138897 1.6 1014117
21:00+15юв239219 1.8 101784
18 апреля, вс
вс1800:00+14юв259899 0.4 1018276
03:00+14юв359597 1.1 1016434
06:00+14юв259897 0.8 1018296
09:00+15юв2595100 1.1 1020464
12:00+18юв238098 0.4 1018648
15:00+18юв238043 1.4 1015681
18:00+16юв249256 1.6 1016346
21:00+14юв369889 2.0 1019357
19 апреля, пн
пн1900:00+14юв2698100 0.1 1018485
03:00+14юв2598100 1.1 1016530
06:00+14юв1398100 0.3 1018375
09:00+15вюв2497100 0.8 1019342
12:00+15ююв1297100 0.4 1018376
15:00+18юв228184 0.6 1014763
18:00+16юв129298 0.3 1016177
21:00+14юв2498100 0.4 1018210
20 апреля, вт
вт2000:00+14юв2398100 0.0 1017172
03:00+13вюв1298100 0.0 101692
06:00+13в0196100 0.0 101734
09:00+17вюв118172 0.0 1018411
12:00+21вюв125964 0.1 10151288
15:00+18ююв227886 2.1 1014683
18:00+16вюв238986 0.9 1014184
21:00+15вюв239784 1.2 1016131
21 апреля, ср
ср2100:00+14юв2398100 0.1 101799
03:00+13юв129890 0.1 1016144
06:00+13юв129878 0.1 1017183
09:00+15юв129283 0.2 1019304
12:00+18юв117997 0.4 1017715
15:00+18юв218072 1.8 1014637
18:00+17юв138730 0.8 1015168
21:00+15ююв138884 0.9 101786